[[{"header":{"parameterUnit":"m.s-1","parameterCategory":1,"la1":30.2991,"la2":30.254,"lo1":-89.0895,"lo2":-89.0444,"dy":0.0017,"dx":0.0017,"nx":28,"ny":28,"refTime":"2025-11-10T03:00:00:Z","depth":0,"parameterNumber":2,"parameterNumberName":"U-component_of_WINDS"},"data":[0,0,0,0,0,0,0,0,0,0,0,0,0,0,0,0,0,0,0,0,0,0,0,0,0,0,0,0,0,0,0,0,0,0,0,0,0,0,0,0,0,0,0,0,0,0,0,0,0,0,0,0,0,0,0,0,0,0,4.1045,4.1046,0,4.1087,4.1088,4.1088,4.1063,4.1062,4.1061,4.1059,4.1101,4.1103,4.1105,0,0,0,0,0,0,0,0,0,0,0,0,0,4.0943,4.0945,4.1045,4.1046,4.1046,4.1087,4.1088,4.1088,4.1063,4.1062,4.106,4.1059,4.11,4.1103,4.1105,0,0,0,0,0,0,0,0,0,0,0,0,0,4.0986,4.0945,4.1045,4.1039,4.1038,4.1087,4.1088,4.1088,4.1063,4.1062,4.106,4.1058,4.1099,4.1102,4.1106,4.1162,0,0,4.1116,4.1117,0,0,0,0,0,0,0,0,4.0984,4.099,4.1039,4.1039,4.1039,4.1068,4.1067,4.1113,4.1064,4.1054,4.1059,4.1057,4.1091,4.1095,4.1107,4.1164,4.1166,4.1116,4.1118,4.112,4.1121,0,0,0,0,0,0,0,4.0981,4.0988,4.1062,4.104,4.104,4.1034,4.1038,4.1075,4.1082,4.1055,4.1053,4.1058,4.1091,4.1104,4.1108,4.1167,4.1116,4.1119,4.1121,4.1122,4.1275,4.1277,0,0,0,0,0,0,4.0978,4.0986,4.106,4.1063,4.1006,4.1037,4.1042,4.1061,4.1082,4.1083,4.106,4.1057,4.1099,4.1104,4.1109,4.1178,4.112,4.1123,4.1125,4.1273,4.1276,4.1278,0,0,0,0,0,0,4.0976,4.0985,4.1059,4.1024,4.1033,4.1041,4.1062,4.1062,4.1075,4.1086,4.1087,4.1072,4.1098,4.1104,4.115,4.1179,4.1124,4.1127,4.1271,4.1274,4.1277,4.1316,0,0,0,0,0,0,4.0973,4.0985,4.1006,4.1025,4.1035,4.1099,4.1064,4.1064,4.1081,4.1078,4.1097,4.1099,4.1097,4.1145,4.1153,4.1183,4.113,4.1268,4.1272,4.1276,4.1312,4.132,4.1327,0,0,0,0,0,4.097,4.1014,4.1007,4.1016,4.1062,4.1101,4.1106,4.1104,4.1084,4.1105,4.1113,4.1098,4.1175,4.115,4.1159,4.119,4.1266,4.1271,4.1276,4.1309,4.1319,4.1327,0,0,0,0,0,0,4.0998,4.1017,4.1009,4.1061,4.108,4.1096,4.1123,4.1114,4.1138,4.1134,4.113,4.1134,4.1182,4.1191,4.1163,4.1247,4.1217,4.1224,4.124,4.1249,4.1256,4.1253,4.1133,0,0,0,0,0,4.101,4.104,4.1055,4.11,4.111,4.1115,4.1132,4.1129,4.1148,4.1155,4.1165,4.1184,4.1213,4.1231,4.1258,4.1314,4.1318,4.134,4.1347,4.1353,4.1359,4.1391,4.1401,4.1293,4.1293,4.1293,0,0,4.1035,4.105,4.1069,4.1106,4.112,4.1152,4.1122,4.1156,4.118,4.116,4.1204,4.1213,4.1233,4.1285,4.1308,4.1293,4.139,4.1359,4.1364,4.1366,4.1396,4.1406,4.1416,4.1296,4.1296,4.1295,0,0,4.1098,4.1112,4.1151,4.1167,4.1189,4.1193,4.1202,4.1222,4.1227,4.1271,4.1258,4.1286,4.1335,4.1351,4.1365,4.1438,4.1425,4.1446,4.1484,4.1516,4.1524,4.1532,4.1558,4.1568,4.1452,4.1452,4.1452,0,4.1126,4.1174,4.1172,4.1208,4.1226,4.1211,4.1252,4.1266,4.1296,4.1308,4.1292,4.1355,4.1367,4.1423,4.1441,4.1453,4.1465,4.1444,4.1523,4.1531,4.1537,4.1563,4.1573,4.1455,4.1454,4.1454,4.1454,0,4.1209,4.1242,4.1271,4.1302,4.1322,4.136,4.1365,4.1386,4.1382,4.1388,4.1434,4.145,4.148,4.1493,4.1489,4.1549,4.154,4.1524,4.1493,4.155,4.1574,4.1584,4.1458,4.1457,4.1457,4.1456,0,0,4.1287,4.1319,4.133,4.1345,4.137,4.1395,4.1433,4.1464,4.1483,4.1505,4.1537,4.158,4.1566,4.1583,4.158,4.1608,4.1666,4.1588,4.1589,4.1602,4.1734,4.1747,4.1758,4.1658,4.166,4.1661,4.1733,0,4.1352,4.1419,4.142,4.1482,4.1513,4.1502,4.1535,4.1555,4.1562,4.159,4.1597,4.1629,4.1607,4.1617,4.1644,4.1653,4.1692,4.1648,4.1688,4.169,4.1683,4.177,4.1782,4.1849,4.1742,4.1744,4.1745,0,4.1436,4.1462,4.1527,4.155,4.1563,4.1593,4.1623,4.165,4.1672,4.1676,4.1696,4.169,4.173,4.17,4.1754,4.1725,4.1741,4.1749,4.1751,4.1754,4.172,4.1776,4.187,4.188,4.1759,4.1758,4.1757,0,4.1488,4.154,4.1586,4.1599,4.1626,4.1648,4.166,4.1681,4.17,4.1726,4.1739,4.1769,4.1785,4.1809,4.1812,4.179,4.1868,4.1837,4.1872,4.1872,4.1888,4.1887,4.1987,4.19,4.1899,4.1899,4.1899,0,4.156,4.16,4.161,4.1638,4.1684,4.1685,4.173,4.1741,4.176,4.1791,4.1782,4.1811,4.1813,4.1843,4.1846,4.1892,4.1899,4.1903,4.1904,4.1904,4.1904,4.1915,4.191,4.1902,4.1901,4.1901,4.19,0,4.1625,4.1633,4.1683,4.1706,4.1713,4.1745,4.1765,4.1792,4.18,4.1839,4.1848,4.186,4.1895,4.1901,4.1941,4.1943,4.1998,4.1994,4.1991,4.199,4.2025,4.2022,4.2135,4.215,4.2053,4.2054,4.2055,0,4.167,4.1702,4.1729,4.1749,4.1763,4.1796,4.1816,4.182,4.1841,4.1871,4.1895,4.1929,4.1957,4.2014,4.2026,4.2058,4.2054,4.2091,4.2058,4.2059,4.2055,4.2053,4.2057,4.2097,4.2098,4.2099,4.21,0,4.175,4.1753,4.1783,4.1816,4.1841,4.1866,4.189,4.1907,4.1913,4.1938,4.1975,4.1997,4.204,4.2074,4.2106,4.2119,4.2111,4.2111,4.212,4.2121,4.2118,4.2121,4.2009,4.2108,4.2107,4.2106,4.2106,4.2105,4.1807,4.1835,4.1859,4.1893,4.1912,4.1935,4.1963,4.1975,4.2006,4.2041,4.2042,4.2082,4.2106,4.2148,4.2164,4.2195,4.2183,4.2197,4.2201,4.2204,4.2208,4.2114,4.2201,4.2201,4.2201,4.22,4.22,0,4.1887,4.1902,4.1934,4.1969,4.1996,4.1988,4.2014,4.2038,4.2074,4.2097,4.2125,4.2168,4.2202,4.2218,4.2252,4.2275,4.2272,4.2284,4.2282,4.2285,4.2216,4.2205,4.2285,4.2285,4.2285,4.2285,4.2285,4.2285,4.1931,4.1979,4.1985,4.2042,4.2058,4.2098,4.2114,4.2136,4.2154,4.2203,4.2232,4.2243,4.2263,4.2299,4.2331,4.2335,4.2348,4.2361,4.2363,4.2298,4.229,4.2281,4.2271,4.2364,4.2364,4.243,4.243,4.2431]},{"header":{"parameterUnit":"m.s-1","parameterCategory":1,"la1":30.2991,"la2":30.254,"lo1":-89.0895,"lo2":-89.0444,"dy":0.0017,"dx":0.0017,"nx":28,"ny":28,"refTime":"2025-11-10T03:00:00:Z","depth":0,"parameterNumber":3,"parameterNumberName":"V-component_of_WINDS"},"data":[0,0,0,0,0,0,0,0,0,0,0,0,0,0,0,0,0,0,0,0,0,0,0,0,0,0,0,0,0,0,0,0,0,0,0,0,0,0,0,0,0,0,0,0,0,0,0,0,0,0,0,0,0,0,0,0,0,0,-7.0052,-7.0054,0,-7.0164,-7.0165,-7.0166,-7.0144,-7.0142,-7.014,-7.0138,-7.0247,-7.0252,-7.0257,0,0,0,0,0,0,0,0,0,0,0,0,0,-6.9817,-6.9822,-7.0052,-7.0054,-7.0055,-7.0164,-7.0165,-7.0167,-7.0145,-7.0142,-7.014,-7.0137,-7.0246,-7.0251,-7.0257,0,0,0,0,0,0,0,0,0,0,0,0,0,-6.9923,-6.9823,-7.0052,-7.0057,-7.0059,-7.0163,-7.0165,-7.0167,-7.0145,-7.0142,-7.0139,-7.0136,-7.0244,-7.0251,-7.0258,-7.0362,0,0,-7.028,-7.0283,0,0,0,0,0,0,0,0,-6.9917,-6.9932,-7.0055,-7.0057,-7.0059,-7.0137,-7.0122,-7.0232,-7.0146,-7.0112,-7.0138,-7.0135,-7.0213,-7.0222,-7.025,-7.0367,-7.0372,-7.028,-7.0285,-7.0288,-7.029,0,0,0,0,0,0,0,-6.991,-6.9927,-7.0096,-7.0057,-7.0059,-7.0053,-7.0065,-7.0143,-7.0178,-7.0115,-7.0114,-7.0127,-7.0213,-7.0243,-7.0252,-7.0374,-7.028,-7.0287,-7.0291,-7.0294,-7.0585,-7.0588,0,0,0,0,0,0,-6.9901,-6.9921,-7.0093,-7.01,-6.9979,-7.006,-7.0073,-7.0115,-7.0177,-7.0184,-7.013,-7.0126,-7.0232,-7.0244,-7.0256,-7.0384,-7.0288,-7.0294,-7.0299,-7.0581,-7.0586,-7.0589,0,0,0,0,0,0,-6.9896,-6.9917,-7.0088,-7.001,-7.0031,-7.0067,-7.0115,-7.0119,-7.0148,-7.0188,-7.0194,-7.0154,-7.023,-7.0246,-7.0337,-7.0387,-7.0298,-7.0304,-7.0577,-7.0583,-7.0588,-7.0639,0,0,0,0,0,0,-6.989,-6.9915,-6.9956,-7.0011,-7.0036,-7.0168,-7.0118,-7.0123,-7.0161,-7.0157,-7.0212,-7.0219,-7.0229,-7.0326,-7.0344,-7.0395,-7.031,-7.0573,-7.058,-7.0586,-7.0633,-7.0645,-7.0656,0,0,0,0,0,-6.9881,-6.9964,-6.9958,-6.9979,-7.0087,-7.0171,-7.0185,-7.0197,-7.0166,-7.0206,-7.0233,-7.0217,-7.0379,-7.0336,-7.0356,-7.041,-7.057,-7.0578,-7.0585,-7.0628,-7.0643,-7.0656,0,0,0,0,0,0,-6.9911,-6.9971,-6.9965,-7.0068,-7.0115,-7.0168,-7.0219,-7.0212,-7.0267,-7.0261,-7.0272,-7.0284,-7.0378,-7.0403,-7.0354,-7.0515,-7.047,-7.0482,-7.0495,-7.051,-7.0521,-7.0513,-7.0316,0,0,0,0,0,-6.993,-6.9995,-7.0043,-7.013,-7.0154,-7.0183,-7.022,-7.0225,-7.0273,-7.0292,-7.0325,-7.0371,-7.0433,-7.0472,-7.0531,-7.0637,-7.0649,-7.0684,-7.0695,-7.0704,-7.0714,-7.0774,-7.079,-7.0615,-7.0615,-7.0615,0,0,-6.9969,-7.001,-7.005,-7.0137,-7.0174,-7.024,-7.0199,-7.027,-7.0319,-7.0302,-7.0392,-7.0417,-7.0469,-7.0569,-7.0614,-7.0593,-7.0766,-7.0714,-7.0721,-7.0727,-7.0783,-7.08,-7.0815,-7.062,-7.0619,-7.0618,0,0,-7.0074,-7.0112,-7.0189,-7.0228,-7.0285,-7.0304,-7.0323,-7.0377,-7.0395,-7.0485,-7.0474,-7.0532,-7.0637,-7.0675,-7.0709,-7.0832,-7.082,-7.085,-7.091,-7.0967,-7.0981,-7.0994,-7.1038,-7.1054,-7.086,-7.0861,-7.0861,0,-7.0115,-7.0215,-7.0229,-7.0302,-7.0341,-7.0332,-7.041,-7.0446,-7.0519,-7.0546,-7.0521,-7.0655,-7.0689,-7.0799,-7.0829,-7.0856,-7.0878,-7.0844,-7.0979,-7.0991,-7.1003,-7.1045,-7.1062,-7.0864,-7.0864,-7.0863,-7.0863,0,-7.0263,-7.0333,-7.0388,-7.0462,-7.0507,-7.0582,-7.0607,-7.0651,-7.0653,-7.0675,-7.0767,-7.0809,-7.0877,-7.0903,-7.0904,-7.1013,-7.0998,-7.0976,-7.0931,-7.1023,-7.1063,-7.1079,-7.0869,-7.0868,-7.0867,-7.0866,0,0,-7.0388,-7.0471,-7.0491,-7.0525,-7.0589,-7.0643,-7.0718,-7.0787,-7.0825,-7.0876,-7.0939,-7.103,-7.1011,-7.1049,-7.1055,-7.1106,-7.1202,-7.1078,-7.1079,-7.11,-7.1326,-7.1342,-7.1361,-7.1195,-7.1198,-7.1201,-7.1321,0,-7.05,-7.0635,-7.065,-7.077,-7.0835,-7.0829,-7.0894,-7.094,-7.0963,-7.1021,-7.1045,-7.111,-7.108,-7.1103,-7.1153,-7.118,-7.1248,-7.1171,-7.1253,-7.1256,-7.1241,-7.1382,-7.1399,-7.1511,-7.1337,-7.134,-7.1342,0,-7.0648,-7.0706,-7.0833,-7.0891,-7.0918,-7.0977,-7.1043,-7.1098,-7.1151,-7.1164,-7.1208,-7.1208,-7.1285,-7.1238,-7.1345,-7.1293,-7.1327,-7.1346,-7.135,-7.1358,-7.1304,-7.1394,-7.1546,-7.1563,-7.1367,-7.1365,-7.1363,0,-7.0727,-7.0837,-7.0928,-7.0958,-7.1026,-7.1068,-7.1099,-7.1148,-7.119,-7.1246,-7.1273,-7.1337,-7.1372,-7.1422,-7.1439,-7.1403,-7.1546,-7.1499,-7.1558,-7.1558,-7.1588,-7.1586,-7.1749,-7.161,-7.161,-7.161,-7.1609,0,-7.085,-7.0928,-7.0965,-7.1021,-7.1109,-7.1126,-7.1211,-7.124,-7.1285,-7.1345,-7.1343,-7.14,-7.142,-7.148,-7.1494,-7.1581,-7.1596,-7.1609,-7.1611,-7.1609,-7.1608,-7.1632,-7.1624,-7.1614,-7.1613,-7.1612,-7.1612,0,-7.0954,-7.0982,-7.108,-7.1139,-7.1155,-7.1217,-7.1267,-7.1321,-7.1344,-7.1421,-7.144,-7.1476,-7.1546,-7.1569,-7.1654,-7.1663,-7.1765,-7.1761,-7.1748,-7.1749,-7.1807,-7.1801,-7.1991,-7.2017,-7.1861,-7.1863,-7.1864,0,-7.103,-7.1091,-7.1157,-7.1199,-7.1231,-7.1298,-7.1341,-7.1361,-7.1405,-7.1471,-7.1517,-7.1588,-7.1646,-7.1759,-7.1792,-7.1857,-7.1854,-7.1917,-7.1864,-7.186,-7.1856,-7.1853,-7.1859,-7.1926,-7.1928,-7.1929,-7.193,0,-7.1164,-7.1176,-7.1238,-7.1307,-7.1359,-7.1413,-7.1466,-7.15,-7.1527,-7.1577,-7.1651,-7.1696,-7.1785,-7.1855,-7.1922,-7.1952,-7.1946,-7.1947,-7.1964,-7.1962,-7.1953,-7.196,-7.1776,-7.1942,-7.1941,-7.194,-7.1939,-7.1939,-7.1257,-7.1311,-7.1367,-7.1437,-7.148,-7.153,-7.1584,-7.1615,-7.1678,-7.1753,-7.176,-7.184,-7.1892,-7.1982,-7.2016,-7.2078,-7.206,-7.2085,-7.2091,-7.2097,-7.2103,-7.1943,-7.209,-7.209,-7.209,-7.2089,-7.2089,0,-7.1391,-7.1427,-7.1492,-7.1567,-7.1623,-7.1615,-7.1673,-7.172,-7.1791,-7.1842,-7.19,-7.1985,-7.2054,-7.2094,-7.2163,-7.2205,-7.2204,-7.2222,-7.2219,-7.2227,-7.2114,-7.2093,-7.2222,-7.2222,-7.2222,-7.2222,-7.2222,-7.2222,-7.1467,-7.1559,-7.1578,-7.1691,-7.1726,-7.1807,-7.1841,-7.1887,-7.1927,-7.2024,-7.2082,-7.2108,-7.2155,-7.2227,-7.229,-7.23,-7.2326,-7.2346,-7.2354,-7.2248,-7.2234,-7.2221,-7.2201,-7.2352,-7.2352,-7.2462,-7.2463,-7.2463]}]]